Regional Weather Roundup
Issued by NWS

Home | Current Version | Previous Version | Text Only | Print | Product List | Glossary On
Versions: 1 2 3 4 5 6 7 8 9 10 11 12 13 14 15 16 17 18 19 20 21 22 23 24 25 26 27 28 29 30 31 32 33 34 35 36 37 38 39 40 41 42 43 44 45 46 47 48 49 50
000
ASUS45 KCYS 241110
RWRWY

WYOMING REGIONAL WEATHER ROUNDUP
NATIONAL WEATHER SERVICE CHEYENNE WY
500 AM MDT SAT JUN 24 2017

NOTE:  "FAIR" INDICATES FEW OR NO CLOUDS BELOW 12,000 FEET
WITH NO SIGNIFICANT WEATHER AND/OR OBSTRUCTIONS TO VISIBILITY.

WYZ001-241200-
YELLOWSTONE NATIONAL PARK

CITY           SKY/WX    TMP DP  RH WIND       PRES   REMARKS
LK YELLOWSTONE   N/A     29  26  89 CALM      30.43R
W YELLOWSTONE  NOT AVBL

$$
WYZ002>013-054>058-071-098>099-241200-
NORTHERN WYOMING

CITY           SKY/WX    TMP DP  RH WIND       PRES   REMARKS
JACKSON        FAIR      39  36  87 NW5       30.36R
CODY           FAIR      47  35  63 SW6       30.34S
GREYBULL       FAIR      50  33  52 S3        30.28R
WORLAND        FAIR      42  33  70 CALM      30.28S
SHERIDAN       MOCLDY    47  42  83 NE3       30.29S
BUFFALO        FAIR      44  34  67 SW9       30.32S
GILLETTE       MOCLDY    47  39  74 S3        30.29S
NEWCASTLE      FAIR      41  28  60 N8        30.30R

$$
WYZ014>020-022>026-101>103-241200-
CENTRAL WYOMING

CITY           SKY/WX    TMP DP  RH WIND       PRES   REMARKS
BIG PINEY      FAIR      33  25  72 NW6       30.37S WCI  28
PINEDALE       FAIR      34  30  86 N3        30.38R
DUBOIS         FAIR      36  28  75 NW7       30.40R WCI  30
LANDER         FAIR      44  32  62 VRB3      30.32S
RIVERTON       FAIR      46  31  55 N5        30.33S
CASPER         FAIR      39  32  76 W5        30.32S
DOUGLAS        CLOUDY    46  37  71 CALM      30.32S

$$
WYZ021-027>030-104>119-241200-
SOUTHERN WYOMING

CITY           SKY/WX    TMP DP  RH WIND       PRES   REMARKS
EVANSTON       FAIR      49  33  54 E3        30.34R
KEMMERER         N/A     43  30  61 N13       30.36S
FORT BRIDGER   FAIR      42  29  60 W3        30.37R
ROCK SPRINGS   FAIR      45  30  55 NE9       30.34R
DIXON          FAIR      37  29  73 CALM      30.32R
RAWLINS        FAIR      45  27  49 NE10      30.33S
SARATOGA       FAIR      39  32  75 SW3       30.33R
LARAMIE        CLOUDY    45  32  60 SE3       30.35S
CHEYENNE       CLOUDY    51  30  44 E6        30.33F
TORRINGTON     CLOUDY    52  36  54 CALM      30.29R
PINE BLUFFS    CLOUDY    50  43  76 CALM      30.32S

$$



USA.gov is the U.S. government's official web portal to all federal, state and local government web resources and services.